www.pogodaiklimat.ru

Погода и климат >> Архив погоды >> Австралия >> Onslow Airport


ПОГОДА в Onslow Airport

  • Прогноз погоды в Onslow Airport
  • Монитор погоды в Onslow Airport
  • Климат города

АРХИВ ПОГОДЫ в Onslow Airport

Время (UTC), дата Ветер
(напр.,м/с)
 
Видим.   Явления Облачность Т
(С)
Тd
(С)
f
(%)
Тe
(С)
Тes
(С)
Комфортность P
(гПа)
Po
(гПа)
Тmin
(С)
Tmax
(С)
R
(мм)
R24
(мм)
S
(см)
04 19.04 Ю 3 н/о н/о +29.3 +10.9 32 +30 +30 жарко 1012.5 1011.2
06 19.04 З 8 н/о н/о +30.2 +16.9 45 +34 +34 очень
душно
1011.4 1010.1
07 19.04 З 9 н/о н/о +29.4 +17.2 48 +33 +33 душно 1011.1 1009.8
09 19.04 З 9 н/о н/о +27.9 +15.9 48 +31 +31 душно 1011.9 1010.6
10 19.04 З 7 н/о н/о +26.7 +14.8 48 +29 +29 жарко 1012.3 1011.0
12 19.04 З 6 н/о н/о +25.5 +15.5 54 +29 +29 душно 1013.6 1012.3
13 19.04 ЮЗ 7 н/о н/о +24.8 +16.0 58 +28 +28 жарко 1014.0 1012.7 +31.8
15 19.04 ЮЗ 7 н/о н/о +23.3 +17.7 71 +29 +29 душно 1014.1 1012.8
16 19.04 ЮЗ 5 н/о н/о +22.6 +16.4 68 +27 +27 душно 1014.0 1012.7
18 19.04 ЮЗ 5 н/о н/о +21.1 +13.0 60 +23 +23 комфорт 1013.8 1012.5
19 19.04 ЮЗ 5 н/о н/о +20.8 +12.8 60 +23 +23 комфорт 1013.4 1012.1
21 19.04 ЮЗ 6 н/о н/о +20.2 +11.9 59 +22 +22 комфорт 1013.3 1012.0
22 19.04 ЮЗ 6 н/о н/о +19.7 +12.0 61 +21 +21 комфорт 1013.5 1012.2
00 20.04 Ю 6 н/о н/о +21.4 +12.8 58 +24 +24 комфорт 1014.6 1013.3
01 20.04 Ю 4 н/о н/о +25.1 +12.7 46 +27 +27 жарко 1014.8 1013.5 +19.3
03 20.04 С 2 н/о н/о +30.5 +11.0 30 +31 +31 жарко 1014.3 1013.0
04 20.04 СЗ 4 н/о н/о +30.5 +14.2 37 +32 +32 жарко 1013.6 1012.3
06 20.04 СЗ 5 н/о н/о +30.3 +13.1 35 +32 +32 жарко 1012.5 1011.2
07 20.04 СЗ 6 н/о н/о +29.6 +13.8 38 +31 +31 жарко 1012.1 1010.8
09 20.04 З 6 н/о н/о +28.0 +17.8 54 +32 +32 душно 1012.4 1011.1
10 20.04 З 5 н/о н/о +26.2 +19.3 66 +32 +32 очень
душно
1012.9 1011.6
12 20.04 З 4 н/о н/о +24.9 +20.6 77 +31 +31 очень
душно
1014.4 1013.1
13 20.04 СЗ 4 н/о н/о +25.1 +20.6 76 +31 +31 очень
душно
1014.9 1013.6 +31.8
15 20.04 З 4 н/о н/о +24.5 +20.8 80 +31 +31 очень
душно
1014.7 1013.4
16 20.04 З 4 н/о н/о +23.8 +19.5 77 +29 +29 душно 1014.4 1013.1
18 20.04 З 4 н/о н/о +22.4 +17.5 74 +27 +27 душно 1013.9 1012.6
19 20.04 ЮЗ 4 н/о н/о +21.8 +15.6 68 +25 +25 комфорт 1013.7 1012.4
21 20.04 З 3 н/о н/о +19.9 +14.5 71 +22 +22 комфорт 1013.8 1012.5
22 20.04 ЮЗ 3 н/о н/о +19.8 +14.4 71 +22 +22 комфорт 1014.2 1012.9
00 21.04 Ю 3 н/о н/о +23.8 +14.2 55 +26 +26 жарко 1015.2 1013.9
01 21.04 В 2 н/о н/о +26.3 +14.7 49 +29 +29 жарко 1015.7 1014.4 +19.6
03 21.04 С 4 н/о н/о +28.5 +15.8 46 +32 +32 душно 1015.4 1014.1
04 21.04 С 4 н/о н/о +29.7 +16.5 45 +33 +33 душно 1014.5 1013.2
06 21.04 СЗ 5 н/о н/о +30.3 +17.4 46 +34 +34 очень
душно
1013.3 1012.0
07 21.04 СЗ 5 н/о н/о +29.4 +18.2 51 +34 +34 очень
душно
1013.1 1011.8
09 21.04 СЗ 5 н/о н/о +27.8 +17.9 55 +32 +32 душно 1013.1 1011.8
10 21.04 СЗ 3 н/о н/о +26.0 +18.7 64 +31 +31 очень
душно
1013.7 1012.4
12 21.04 СЗ 2 н/о н/о +23.5 +19.0 76 +28 +28 душно 1014.5 1013.2
13 21.04 СЗ 3 н/о н/о +23.0 +20.0 83 +30 +30 очень
душно
1014.9 1013.6 +31.2
15 21.04 ЮЗ 4 н/о н/о +23.5 +20.2 82 +29 +29 душно 1014.6 1013.3
16 21.04 ЮЗ 3 н/о н/о +22.8 +19.6 82 +29 +29 очень
душно
1014.2 1012.9
18 21.04 З 2 н/о н/о +20.7 +18.6 88 +25 +25 комфорт 1013.8 1012.5
19 21.04 З 3 н/о н/о +20.8 +19.3 91 +26 +26 душно 1013.6 1012.3
21 21.04 З 3 н/о н/о +20.9 +19.9 94 +26 +26 душно 1013.6 1012.3
22 21.04 ЮЗ 3 н/о н/о +20.9 +19.9 94 +26 +26 душно 1014.1 1012.8
00 22.04 З 3 н/о н/о +23.7 +22.9 95 +31 +31 очень
душно
1015.2 1013.9
01 22.04 З 3 н/о {туман} н/о +26.2 +21.0 73 +33 +33 очень
душно
1015.3 1014.0 +20.5
03 22.04 СЗ 5 н/о н/о +29.5 +18.9 53 +35 +35 очень
душно
1015.0 1013.7
04 22.04 З 6 н/о н/о +29.7 +18.5 51 +35 +35 очень
душно
1014.2 1012.9
06 22.04 З 6 н/о н/о +30.2 +20.4 56 +37 +37 очень
душно
1012.9 1011.6
07 22.04 З 7 н/о н/о +29.8 +20.4 57 +37 +37 очень
душно
1012.8 1011.5
09 22.04 З 6 н/о н/о +28.0 +22.0 70 +36 +36 очень
душно
1012.8 1011.5
10 22.04 З 5 н/о н/о +26.6 +22.2 77 +35 +35 очень
душно
1013.4 1012.1
12 22.04 З 4 н/о н/о +25.4 +22.7 85 +33 +33 очень
душно
1014.6 1013.3
13 22.04 З 4 н/о н/о +25.2 +22.5 85 +33 +33 очень
душно
1015.0 1013.7 +31.2
15 22.04 З 4 н/о н/о +24.5 +21.6 84 +31 +31 очень
душно
1014.7 1013.4
16 22.04 ЮЗ 3 н/о н/о +23.9 +21.0 84 +30 +30 очень
душно
1014.5 1013.2
18 22.04 ЮЗ 3 н/о н/о +23.7 +21.0 85 +30 +30 очень
душно
1013.8 1012.5
19 22.04 ЮЗ 2 н/о н/о +23.2 +20.9 87 +31 +31 очень
душно
1013.7 1012.4
21 22.04 З 3 н/о н/о +22.8 +21.1 90 +30 +30 очень
душно
1013.6 1012.3
22 22.04 ЮЗ 2 н/о н/о +22.5 +21.0 91 +29 +29 очень
душно
1013.8 1012.5
00 23.04 Ю 3 н/о н/о +25.6 +22.5 83 +34 +34 очень
душно
1014.6 1013.3
01 23.04 ЮЗ 3 н/о н/о +27.7 +21.0 67 +35 +35 очень
душно
1015.0 1013.7 +22.4
03 23.04 СЗ 5 н/о н/о +29.9 +20.5 57 +37 +37 очень
душно
1014.6 1013.3
04 23.04 З 6 н/о н/о +30.3 +20.5 56 +37 +37 очень
душно
1013.9 1012.6
06 23.04 З 7 н/о н/о +30.5 +20.4 55 +37 +37 очень
душно
1012.6 1011.3
07 23.04 СЗ 5 н/о н/о +29.6 +20.7 59 +37 +37 очень
душно
1012.4 1011.1
09 23.04 СЗ 6 н/о н/о +28.0 +22.0 70 +36 +36 очень
душно
1012.9 1011.6
10 23.04 З 6 н/о н/о +27.0 +22.2 75 +35 +35 очень
душно
1013.2 1011.9
12 23.04 З 5 н/о н/о +26.3 +21.7 76 +34 +34 очень
душно
1014.6 1013.3
13 23.04 З 5 н/о н/о +26.2 +22.1 78 +34 +34 очень
душно
1015.1 1013.8 +31.7
15 23.04 З 4 н/о н/о +25.4 +22.1 82 +33 +33 очень
душно
1014.7 1013.4
16 23.04 З 4 н/о н/о +24.8 +21.5 82 +32 +32 очень
душно
1014.8 1013.5
18 23.04 З 3 н/о н/о +23.8 +20.7 83 +30 +30 очень
душно
1013.9 1012.6
19 23.04 З 2 н/о н/о +23.4 +20.7 85 +31 +31 очень
душно
1013.8 1012.5
21 23.04 ЮЗ 2 н/о н/о +23.4 +20.9 86 +31 +31 очень
душно
1013.5 1012.2
22 23.04 штиль 0 н/о н/о +23.0 +20.5 86 +30 +30 очень
душно
1013.8 1012.5
00 24.04 штиль 0 н/о н/о +26.1 +21.3 75 +33 +33 очень
душно
1014.6 1013.3
01 24.04 З 3 н/о н/о +28.2 +21.0 65 +35 +35 очень
душно
1014.7 1013.4 +22.8
03 24.04 СЗ 5 н/о н/о +29.1 +20.0 58 +35 +35 очень
душно
1014.7 1013.4
04 24.04 СЗ 5 н/о н/о +29.5 +18.3 51 +34 +34 очень
душно
1013.8 1012.5
06 24.04 СЗ 7 н/о н/о +30.6 +20.5 55 +38 +38 очень
душно
1012.6 1011.3
07 24.04 СЗ 6 н/о н/о +29.5 +20.9 60 +37 +37 очень
душно
1012.3 1011.0
09 24.04 СЗ 6 н/о н/о +28.1 +21.1 66 +35 +35 очень
душно
1012.5 1011.2
10 24.04 З 7 н/о н/о +26.8 +20.9 70 +34 +34 очень
душно
1013.0 1011.7
12 24.04 З 6 н/о н/о +26.3 +21.5 75 +34 +34 очень
душно
1013.6 1012.3
13 24.04 З 5 н/о н/о +26.1 +21.1 74 +33 +33 очень
душно
1014.0 1012.7 +31.2
15 24.04 З 4 н/о н/о +24.7 +21.0 80 +31 +31 очень
душно
1013.6 1012.3
16 24.04 З 5 н/о н/о +24.5 +21.0 81 +31 +31 очень
душно
1013.4 1012.1
18 24.04 З 4 н/о н/о +24.2 +19.7 76 +29 +29 душно 1012.9 1011.6
19 24.04 З 4 н/о н/о +24.3 +18.0 68 +29 +29 душно 1012.8 1011.5
21 24.04 З 3 н/о н/о +22.9 +16.0 65 +27 +27 душно 1013.5 1012.2
22 24.04 З 3 н/о н/о +22.7 +14.8 61 +26 +26 жарко 1013.7 1012.4
00 25.04 З 1 н/о н/о +23.4 +14.4 57 +27 +27 душно 1014.4 1013.1
01 25.04 штиль 0 н/о н/о +26.0 +14.5 49 +28 +28 жарко 1015.0 1013.7 +22.3
03 25.04 С 3 н/о н/о +27.8 +16.4 50 +31 +31 душно 1015.2 1013.9
04 25.04 СЗ 3 н/о н/о +27.7 +16.6 51 +31 +31 душно 1014.6 1013.3
06 25.04 СЗ 6 н/о н/о +28.3 +17.8 53 +33 +33 очень
душно
1013.8 1012.5
07 25.04 СЗ 6 н/о н/о +27.9 +19.1 59 +33 +33 очень
душно
1013.6 1012.3
09 25.04 СЗ 3 н/о н/о +26.7 +20.5 69 +33 +33 очень
душно
1013.4 1012.1
10 25.04 З 2 н/о н/о +26.2 +20.3 70 +32 +32 очень
душно
1013.8 1012.5
12 25.04 ЮЗ 3 н/о н/о +25.6 +19.9 71 +31 +31 очень
душно
1015.1 1013.8
13 25.04 СЗ 3 н/о н/о +24.7 +19.8 74 +30 +30 очень
душно
1015.5 1014.2 +30.3
15 25.04 штиль 0 н/о н/о +24.7 +21.2 81 +31 +31 очень
душно
1015.2 1013.9
16 25.04 ЮЗ 2 н/о н/о +24.7 +22.0 85 +32 +32 очень
душно
1014.6 1013.3
18 25.04 В 3 н/о н/о +24.8 +21.5 82 +32 +32 очень
душно
1014.8 1013.5
19 25.04 В 4 н/о н/о +24.9 +21.2 80 +31 +31 очень
душно
1014.7 1013.4
21 25.04 В 3 н/о н/о +24.1 +20.0 78 +30 +30 очень
душно
1015.2 1013.9
22 25.04 В 5 н/о н/о +24.8 +19.2 71 +30 +30 душно 1015.4 1014.1
00 26.04 В 6 н/о н/о +25.8 +20.1 71 +32 +32 очень
душно
1016.4 1015.1
01 26.04 В 6 н/о н/о +26.8 +20.4 68 +33 +33 очень
душно
1016.6 1015.3 +23.5
03 26.04 В 4 н/о н/о +30.8 +19.5 51 +37 +37 очень
душно
1016.3 1015.0

 

Местоположение метеостанции Onslow Airport (Западная Австралия, Австралия): широта -21.67 долгота 115.12 высота над уровнем моря 4 м.

В архиве по умолчанию представлена погода в Onslow Airport за последнюю неделю. Архивные данные за месяц целиком и за предыдущие месяцы, начиная с января 2011 года, Вы можете получить, выбрав интересующий диапазон дат из раскрывающегося списка и нажав кнопку "Ввод!".

Внимание! Время в таблицах - всемирное. Для получения местного времени необходимо прибавить поправку, которая в Onslow Airport равна 8 ч.

Смотрите также архив погоды в соседних городах и на ближайших метеорологических станциях:

Погода в Thevenard Island (Западная Австралия, Австралия) (27 км)
Погода в Barrow Island Airport (Западная Австралия, Австралия) (93 км)
Погода в Mardie (Западная Австралия, Австралия) (104 км)
Погода в Varanus Island (Западная Австралия, Австралия) (123 км)
Погода в Learmonth Airport (Западная Австралия, Австралия) (124 км)
Погода в Karratha Aero (Западная Австралия, Австралия) (201 км)
Погода в Roebourne Aero (Западная Австралия, Австралия) (234 км)
Погода в Paraburdoo Aero (Западная Австралия, Австралия) (318 км)
Погода в Carnarvon Airport (Западная Австралия, Австралия) (387 км)
Погода в Port Hedland Apardoo (Западная Австралия, Австралия) (392 км)

Пояснения к столбцам:

Ветер - указаны скорость ветра в м/с - средняя за 10 мин, порывы в срок и между сроками (в фигурных скобках) и направление, откуда дует ветер: С - северный, СВ - северо-восточный, В - восточный, ЮВ - юго-восточный, Ю - южный, ЮЗ - юго-западный, З - западный, СЗ - северо-западный.
Видимость - горизонтальная дальность видимости в метрах или километрах. При видимости от 1 до 10 км при отсутствии осадков обычно наблюдается дымка, при ухудшении видимости до 1 км и менее - туман. В сухую погоду видимость может ухудшаться дымом, пылью или мглою.
Явления - указаны атмосферные явления, наблюдавшиеся в срок или в последний час перед сроком; фигурными скобками обозначены явления, наблюдавшиеся между сроками (за 1-3 часа до срока); квадратными скобками обозначены град или гололедные отложения с указанием их диаметра в мм.
Облачность - указаны через наклонную черту общая и нижняя облачность в баллах и высота нижней границы облаков в метрах; квадратными скобками обозначены формы облаков: Ci - перистые, Cs - перисто-слоистые, Cc - перисто-кучевые, Ac - высококучевые, As - высокослоистые, Sc - слоисто-кучевые, Ns - слоисто-дождевые, Cu - кучевые, Cb - кучево-дождевые. Подробнее классификацию облаков см. в Атласе облаков (PDF).
T - Температура воздуха - температура, измеренная на высоте 2 м над землей.
Td - Температура точки росы - температура, при понижении до которой содержащийся в воздухе водяной пар достигнет насыщения.
f - Относительная влажность воздуха - влажноcть воздуха, измеренная на высоте 2 м над землей.
Te - Эффективная температура - температура, которую ощущает одетый по сезону человек в тени. Характеристика душности погоды. При расчете учитывается влияние влажности воздуха и скорости ветра на теплоощущения человека.
Tes - Эффективная температура на солнце - температура, которую ощущает человек, с поправкой на солнечный нагрев. Характеристика знойности погоды. Зависит от высоты солнца над горизонтом, облачности и скорости ветра. Ночью, в пасмурную погоду, а также при ветре 12 м/с и более поправка равна нулю.
P - Атмосферное давление - приведенное к уровню моря атмосферное давление.
Po - Атмосферное давление - измеренное на уровне метеостанции атмосферное давление.
Tmin - Минимальная температура - минимум температуры воздуха на высоте 2 м над землей.
Tmax - Максимальная температура - максимум температуры воздуха на высоте 2 м над землей.
R - Количество осадков - Количество выпавших осадков за период времени, мм. При наведении курсора мыши на число - период времени, за который выпало указанное количество осадков.
R24 - Количество осадков - Количество выпавших осадков за 24 часа, мм.
S - Снежный покров - Высота снежного покрова, см. При наведении курсора мыши на число - состояние снежного покрова и степень покрытия местности в баллах.